M I D A S
Marine Information and Data Acquisition System
Tripno 273 of the Zeeleeuw from 2002-05-03 06:46:01 to 2002-05-03 16:02:10
Back to CruiseResearch ActivitiesStationsMapUnderway DataData graphs

EquipmentUnitsComments
TimeDGPSUTC
LatitudeDGPSDM.mWGS84
LongitudeDGPSDM.mWGS84
SpeedMeteo Stationm/sRelative wind speed
DirectionMeteo StationdegRelative wind direction
TemperatureMeteo Stationdeg CelciusAir temperature
PressureMeteo StationPaAtmospheric pressure
HumidityMeteo Station%Relative humidity
Missing or incorrect values are displayed as -999
Metereological data collected by the RV Zeeleeuw from 2002-05-03 06:46:01 to 2002-05-03 16:02:10
Time Latitude Longitude Speed Direction Temperature Pressure Humidity
2002-05-03 06:47 51°13.698 2°55.791 4.3 10 10.3 101480 83
2002-05-03 06:48 51°13.705 2°55.76 1.6 343 10.3 101480 83
2002-05-03 06:49 51°13.702 2°55.739 4.1 288 10.3 101480 83
2002-05-03 06:50 51°13.692 2°55.73 3 267 10.3 101470 83
2002-05-03 06:51 51°13.7 2°55.72 5.8 228 10.4 101470 82
2002-05-03 06:52 51°13.786 2°55.673 7 230 10.4 101470 82
2002-05-03 06:53 51°13.889 2°55.593 7.2 229 10.4 101460 82
2002-05-03 06:54 51°14.004 2°55.508 8.5 228 10.4 101460 82
2002-05-03 06:55 51°14.118 2°55.423 8.1 225 10.3 101470 83
2002-05-03 06:56 51°14.225 2°55.316 7.9 224 10.3 101470 83
2002-05-03 06:57 51°14.317 2°55.169 7.4 219 10.3 101470 83
2002-05-03 06:58 51°14.401 2°55.011 9.3 225 10.3 101460 84
2002-05-03 06:59 51°14.545 2°54.831 10.4 225 10.3 101460 83
2002-05-03 07:00 51°14.726 2°54.726 11.8 232 10.2 101460 83
2002-05-03 07:01 51°14.929 2°54.714 11.3 241 10.2 101460 84
2002-05-03 07:02 51°15.122 2°54.801 11.6 247 10.3 101460 84
2002-05-03 07:03 51°15.303 2°54.934 11.2 251 10.3 101470 83
2002-05-03 07:04 51°15.469 2°55.115 9.7 251 10.3 101470 83
2002-05-03 07:05 51°15.619 2°55.345 11 256 10.3 101470 83
2002-05-03 07:06 51°15.786 2°55.582 11.4 254 10.3 101480 83
2002-05-03 07:07 51°15.95 2°55.822 11.3 256 10.4 101470 83
2002-05-03 07:08 51°16.086 2°56.106 10.4 257 10.3 101470 83
2002-05-03 07:09 51°16.203 2°56.418 10.5 257 10.3 101480 82
2002-05-03 07:10 51°16.326 2°56.719 10.9 258 10.4 101480 83
2002-05-03 07:11 51°16.448 2°57.021 10.5 254 10.3 101480 82
2002-05-03 07:12 51°16.568 2°57.325 9.9 252 10.4 101480 83
2002-05-03 07:13 51°16.681 2°57.634 9.9 254 10.4 101480 82
2002-05-03 07:14 51°16.797 2°57.94 10.4 255 10.4 101470 82
2002-05-03 07:15 51°16.911 2°58.244 9.8 257 10.4 101480 81
2002-05-03 07:16 51°17.029 2°58.56 9.5 253 10.4 101470 82
2002-05-03 07:17 51°17.144 2°58.867 10.3 257 10.4 101470 81
2002-05-03 07:18 51°17.255 2°59.184 10.5 256 10.5 101470 82
2002-05-03 07:19 51°17.361 2°59.508 10.1 250 10.4 101480 81
2002-05-03 07:20 51°17.476 2°59.822 11.2 257 10.5 101480 82
2002-05-03 07:21 51°17.604 3°0.125 11.4 259 10.4 101480 81
2002-05-03 07:22 51°17.727 3°0.43 10.3 258 10.4 101480 81
2002-05-03 07:23 51°17.851 3°0.735 11.2 257 10.5 101480 82
2002-05-03 07:24 51°17.975 3°1.04 10 253 10.4 101480 82
2002-05-03 07:25 51°18.103 3°1.351 9.5 252 10.5 101490 82
2002-05-03 07:26 51°18.224 3°1.654 10.5 248 10.5 101490 82
2002-05-03 07:27 51°18.349 3°1.962 11.4 258 10.5 101490 80
2002-05-03 07:28 51°18.472 3°2.262 11.4 253 10.5 101490 80
2002-05-03 07:29 51°18.592 3°2.555 10 252 10.5 101490 80
2002-05-03 07:30 51°18.714 3°2.857 10.2 248 10.6 101490 79
2002-05-03 07:31 51°18.834 3°3.154 10.8 252 10.5 101490 79
2002-05-03 07:32 51°18.956 3°3.448 10.5 256 10.6 101480 79
2002-05-03 07:33 51°19.079 3°3.744 10.4 249 10.6 101490 79
2002-05-03 07:34 51°19.199 3°4.034 10 253 10.6 101490 79
2002-05-03 07:35 51°19.323 3°4.33 10.1 250 10.6 101500 79
2002-05-03 07:36 51°19.459 3°4.594 10.8 249 10.6 101490 79
2002-05-03 07:37 51°19.616 3°4.842 10.5 250 10.6 101490 79
2002-05-03 07:38 51°19.763 3°5.093 10.8 252 10.6 101490 78
2002-05-03 07:39 51°19.908 3°5.337 10.4 250 10.6 101490 78
2002-05-03 07:40 51°20.056 3°5.583 10.1 250 10.6 101490 79
2002-05-03 07:41 51°20.207 3°5.831 9.8 243 10.6 101500 78
2002-05-03 07:42 51°20.354 3°6.076 10.8 246 10.6 101490 78
2002-05-03 07:43 51°20.5 3°6.321 10.1 248 10.6 101490 78
2002-05-03 07:44 51°20.647 3°6.565 11.2 251 10.6 101500 78
2002-05-03 07:45 51°20.795 3°6.809 9.3 251 10.6 101500 78
2002-05-03 07:46 51°20.943 3°7.054 9.9 247 10.6 101500 79
2002-05-03 07:47 51°21.092 3°7.3 10.9 246 10.6 101500 78
2002-05-03 07:48 51°21.256 3°7.524 10.5 244 10.6 101500 78
2002-05-03 07:49 51°21.42 3°7.749 10.8 249 10.6 101500 78
2002-05-03 07:50 51°21.584 3°7.977 10.2 244 10.6 101500 78
2002-05-03 07:51 51°21.745 3°8.202 11 246 10.6 101500 78
2002-05-03 07:52 51°21.909 3°8.428 10.8 247 10.6 101510 78
2002-05-03 07:53 51°22.072 3°8.659 10.5 251 10.7 101500 78
2002-05-03 07:54 51°22.244 3°8.88 10.6 253 10.6 101500 78
2002-05-03 07:55 51°22.414 3°9.095 10.7 248 10.7 101500 78
2002-05-03 07:56 51°22.57 3°9.274 8.6 247 10.6 101500 78
2002-05-03 07:57 51°22.661 3°9.287 6.8 232 10.7 101510 78
2002-05-03 07:58 51°22.728 3°9.283 6.3 262 10.6 101510 78
2002-05-03 07:59 51°22.755 3°9.32 0.8 331 10.6 101510 78
2002-05-03 08:00 51°22.721 3°9.365 2.5 15 10.5 101520 78
2002-05-03 08:01 51°22.701 3°9.371 3 68 10.5 101520 79
2002-05-03 08:02 51°22.695 3°9.359 3.4 77 10.5 101520 79
2002-05-03 08:03 51°22.689 3°9.344 3.4 84 10.4 101520 79
2002-05-03 08:04 51°22.682 3°9.328 3.6 84 10.4 101520 79
2002-05-03 08:05 51°22.674 3°9.31 3.2 84 10.4 101510 80
2002-05-03 08:06 51°22.666 3°9.291 3.9 80 10.3 101520 80
2002-05-03 08:07 51°22.657 3°9.271 3.6 89 10.3 101520 80
2002-05-03 08:08 51°22.649 3°9.251 4 93 10.3 101520 81
2002-05-03 08:09 51°22.64 3°9.229 3.8 103 10.3 101520 81
2002-05-03 08:10 51°22.63 3°9.208 3.7 98 10.3 101510 81
2002-05-03 08:11 51°22.621 3°9.186 4.2 103 10.4 101520 81
2002-05-03 08:12 51°22.612 3°9.164 4.4 102 10.3 101520 80
2002-05-03 08:13 51°22.602 3°9.142 4.5 96 10.3 101520 81
2002-05-03 08:14 51°22.594 3°9.118 4.6 95 10.3 101520 80
2002-05-03 08:15 51°22.584 3°9.093 4.2 103 10.2 101520 80
2002-05-03 08:16 51°22.569 3°9.033 5.2 188 10.3 101520 80
2002-05-03 08:17 51°22.618 3°8.941 7 251 10.2 101510 80
2002-05-03 08:18 51°22.663 3°9.016 4.2 303 10.3 101510 80
2002-05-03 08:19 51°22.667 3°9.114 5 298 10.3 101510 81
2002-05-03 08:20 51°22.676 3°9.209 4.1 292 10.4 101520 80
2002-05-03 08:21 51°22.681 3°9.319 5.3 284 10.5 101510 80
2002-05-03 08:22 51°22.705 3°9.452 6.1 286 10.6 101510 80
2002-05-03 08:23 51°22.723 3°9.505 4.3 303 10.6 101510 79
2002-05-03 08:24 51°22.725 3°9.504 2.8 309 10.6 101520 79
2002-05-03 08:25 51°22.726 3°9.502 3.7 309 10.5 101520 79
2002-05-03 08:26 51°22.727 3°9.498 3.7 298 10.5 101520 78
2002-05-03 08:27 51°22.728 3°9.493 3.9 309 10.5 101530 79
2002-05-03 08:28 51°22.729 3°9.486 3.6 309 10.5 101530 79
2002-05-03 08:29 51°22.73 3°9.478 4.1 302 10.5 101530 79
2002-05-03 08:30 51°22.731 3°9.469 4.1 307 10.5 101530 79
2002-05-03 08:31 51°22.729 3°9.458 4.9 310 10.6 101540 80
2002-05-03 08:32 51°22.728 3°9.454 5 301 10.5 101530 79
2002-05-03 08:33 51°22.734 3°9.457 4.4 306 10.6 101530 79
2002-05-03 08:34 51°22.741 3°9.467 4 303 10.5 101530 79
2002-05-03 08:35 51°22.747 3°9.481 3.9 305 10.5 101530 79
2002-05-03 08:36 51°22.751 3°9.497 2.5 310 10.5 101530 79
2002-05-03 08:37 51°22.752 3°9.512 3.3 303 10.5 101530 81
2002-05-03 08:38 51°22.749 3°9.524 2.3 303 10.5 101530 79
2002-05-03 08:39 51°22.745 3°9.534 1.8 327 10.4 101540 79
2002-05-03 08:40 51°22.741 3°9.541 0.9 353 10.5 101540 79
2002-05-03 08:41 51°22.734 3°9.547 0.7 336 10.4 101540 79
2002-05-03 08:42 51°22.728 3°9.553 0.8 336 10.4 101540 79
2002-05-03 08:43 51°22.722 3°9.559 0.4 320 10.3 101540 79
2002-05-03 08:44 51°22.758 3°9.65 8.9 248 10.3 101530 79
2002-05-03 08:45 51°22.923 3°9.616 11.8 229 10.3 101520 78
2002-05-03 08:46 51°23.108 3°9.408 11.4 214 10.4 101520 78
2002-05-03 08:47 51°23.277 3°9.143 12.1 224 10.4 101520 79
2002-05-03 08:48 51°23.423 3°8.85 10.1 216 10.5 101520 78
2002-05-03 08:49 51°23.546 3°8.53 11 212 10.4 101520 78
2002-05-03 08:50 51°23.686 3°8.214 11.6 215 10.4 101520 78
2002-05-03 08:51 51°23.831 3°7.911 11.4 214 10.4 101520 78
2002-05-03 08:52 51°23.964 3°7.593 11.1 218 10.4 101530 77
2002-05-03 08:53 51°24.064 3°7.257 9.9 206 10.4 101530 77
2002-05-03 08:54 51°24.143 3°6.891 9.2 213 10.3 101530 78
2002-05-03 08:55 51°24.243 3°6.766 6.5 244 10.3 101540 79
2002-05-03 08:56 51°24.3 3°6.8 5.8 286 10.3 101540 79
2002-05-03 08:57 51°24.32 3°6.868 6 285 10.4 101550 79
2002-05-03 08:58 51°24.339 3°6.972 6 286 10.5 101550 78
2002-05-03 08:59 51°24.355 3°6.984 4.7 281 10.6 101550 79
2002-05-03 09:00 51°24.369 3°6.976 5.1 272 10.6 101550 78
2002-05-03 09:01 51°24.382 3°6.963 5.1 272 10.6 101550 78
2002-05-03 09:02 51°24.377 3°6.926 4.1 295 10.6 101550 77
2002-05-03 09:03 51°24.357 3°6.852 1.9 321 10.6 101560 78
2002-05-03 09:04 51°24.343 3°6.766 3.1 312 10.6 101560 79
2002-05-03 09:05 51°24.353 3°6.836 4.2 302 10.5 101560 78
2002-05-03 09:06 51°24.368 3°6.873 4.7 285 10.5 101560 79
2002-05-03 09:07 51°24.385 3°6.887 5.3 291 10.5 101560 78
2002-05-03 09:08 51°24.399 3°6.899 4 307 10.5 101570 78
2002-05-03 09:09 51°24.406 3°6.912 4.1 305 10.6 101570 78
2002-05-03 09:10 51°24.411 3°6.926 3.8 308 10.5 101570 77
2002-05-03 09:11 51°24.412 3°6.938 0.8 305 10.5 101560 77
2002-05-03 09:12 51°24.366 3°6.966 2 31 10.5 101570 78
2002-05-03 09:13 51°24.314 3°6.977 2.8 3 10.4 101570 77
2002-05-03 09:14 51°24.3 3°6.973 4.3 6 10.4 101570 78
2002-05-03 09:15 51°24.299 3°6.969 3.9 297 10.5 101570 79
2002-05-03 09:16 51°24.302 3°6.968 1.8 323 10.5 101560 78
2002-05-03 09:17 51°24.301 3°6.969 1.8 347 10.4 101560 78
2002-05-03 09:18 51°24.295 3°6.968 0.5 336 10.4 101560 78
2002-05-03 09:19 51°24.294 3°6.968 1.9 307 10.3 101560 78
2002-05-03 09:20 51°24.298 3°6.966 2.4 304 10.4 101560 79
2002-05-03 09:21 51°24.3 3°6.966 1.3 332 10.4 101560 78
2002-05-03 09:22 51°24.297 3°6.968 0.5 331 10.4 101560 78
2002-05-03 09:23 51°24.296 3°6.972 1.4 299 10.4 101560 79
2002-05-03 09:24 51°24.298 3°6.975 3.4 304 10.4 101560 79
2002-05-03 09:25 51°24.303 3°6.977 3.7 307 10.5 101560 79
2002-05-03 09:26 51°24.308 3°6.979 3.3 305 10.4 101570 78
2002-05-03 09:27 51°24.312 3°6.983 2.7 316 10.4 101570 78
2002-05-03 09:28 51°24.315 3°6.988 3.6 309 10.5 101570 78
2002-05-03 09:29 51°24.314 3°6.993 0.8 322 10.4 101570 78
2002-05-03 09:30 51°24.306 3°6.991 3.3 7 10.5 101570 79
2002-05-03 09:31 51°24.291 3°6.984 3.9   10.5 101570 79
2002-05-03 09:32 51°24.273 3°6.976 3.9 7 10.5 101570 79
2002-05-03 09:33 51°24.255 3°6.968 3.6 7 10.4 101570 78
2002-05-03 09:34 51°24.24 3°6.959 3.7 359 10.4 101570 78
2002-05-03 09:35 51°24.226 3°6.951 3.7 1 10.4 101560 79
2002-05-03 09:36 51°24.219 3°6.953 3.7 296 10.4 101560 79
2002-05-03 09:37 51°24.252 3°6.973 7.6 247 10.4 101560 80
2002-05-03 09:38 51°24.346 3°6.992 8.6 248 10.6 101550 79
2002-05-03 09:39 51°24.468 3°7.019 9 243 10.6 101550 79
2002-05-03 09:40 51°24.596 3°7.039 9.5 246 10.7 101540 79
2002-05-03 09:41 51°24.725 3°7.05 8.5 242 10.6 101550 78
2002-05-03 09:42 51°24.856 3°7.058 8.9 246 10.6 101550 78
2002-05-03 09:43 51°24.987 3°7.068 9 240 10.6 101550 78
2002-05-03 09:44 51°25.118 3°7.081 9 243 10.6 101540 78
2002-05-03 09:45 51°25.25 3°7.095 9.6 244 10.6 101550 78
2002-05-03 09:46 51°25.381 3°7.112 9.9 246 10.6 101550 78
2002-05-03 09:47 51°25.513 3°7.131 8.7 242 10.6 101540 78
2002-05-03 09:48 51°25.642 3°7.166 9.1 245 10.7 101540 78
2002-05-03 09:49 51°25.769 3°7.205 10 244 10.6 101550 78
2002-05-03 09:50 51°25.893 3°7.257 9.8 245 10.6 101540 77
2002-05-03 09:51 51°26.016 3°7.317 8.7 246 10.6 101540 77
2002-05-03 09:52 51°26.138 3°7.377 8.7 251 10.6 101540 77
2002-05-03 09:53 51°26.259 3°7.437 8.7 245 10.6 101550 77
2002-05-03 09:54 51°26.379 3°7.496 8 246 10.5 101550 77
2002-05-03 09:55 51°26.5 3°7.557 9.5 244 10.6 101540 77
2002-05-03 09:56 51°26.621 3°7.618 8.9 246 10.6 101550 77
2002-05-03 09:57 51°26.742 3°7.678 8.9 247 10.6 101550 77
2002-05-03 09:58 51°26.86 3°7.741 8.7 252 10.6 101550 77
2002-05-03 09:59 51°26.975 3°7.822 9.3 251 10.6 101550 77
2002-05-03 10:00 51°27.086 3°7.908 8.4 249 10.6 101550 77
2002-05-03 10:01 51°27.195 3°8.003 9 252 10.6 101540 77
2002-05-03 10:02 51°27.305 3°8.095 9 256 10.6 101550 77
2002-05-03 10:03 51°27.413 3°8.187 8.6 256 10.6 101550 77
2002-05-03 10:04 51°27.52 3°8.279 9.2 250 10.6 101560 77
2002-05-03 10:05 51°27.62 3°8.386 8.8 263 10.5 101550 76
2002-05-03 10:06 51°27.701 3°8.529 8.1 252 10.5 101550 76
2002-05-03 10:07 51°27.782 3°8.639 8 258 10.5 101560 76
2002-05-03 10:08 51°27.835 3°8.71 7.5 270 10.5 101560 77
2002-05-03 10:09 51°27.875 3°8.77 7.2 271 10.4 101560 76
2002-05-03 10:10 51°27.912 3°8.816 5.7 254 10.4 101560 76
2002-05-03 10:11 51°27.946 3°8.862 6.8 270 10.4 101560 76
2002-05-03 10:12 51°27.98 3°8.904 6.6 269 10.4 101560 77
2002-05-03 10:13 51°28.002 3°8.949 6.3 299 10.4 101560 76
2002-05-03 10:14 51°27.999 3°8.981 0.9 332 10.3 101560 76
2002-05-03 10:15 51°27.989 3°8.995 4.2 299 10.4 101570 77
2002-05-03 10:16 51°27.984 3°9.009 6 295 10.3 101570 77
2002-05-03 10:17 51°27.984 3°9.02 5.3 277 10.3 101560 76
2002-05-03 10:18 51°27.99 3°9.026 5.3 269 10.4 101560 77
2002-05-03 10:19 51°28 3°9.025 5.8 253 10.5 101560 76
2002-05-03 10:20 51°28.013 3°9.02 6 249 10.5 101570 76
2002-05-03 10:21 51°28.023 3°9.016 6.4 266 10.5 101560 76
2002-05-03 10:22 51°28.027 3°9.014 6 268 10.5 101560 75
2002-05-03 10:23 51°28.027 3°9.012 5.2 283 10.5 101560 75
2002-05-03 10:24 51°28.024 3°9.01 5.3 294 10.5 101560 76
2002-05-03 10:25 51°28.019 3°9.006 5.4 298 10.5 101570 76
2002-05-03 10:26 51°28.012 3°9.002 5.4 291 10.5 101570 76
2002-05-03 10:27 51°28.004 3°8.998 4.7 296 10.5 101570 76
2002-05-03 10:28 51°27.996 3°8.994 5.3 297 10.5 101570 75
2002-05-03 10:29 51°27.988 3°8.993 5.8 305 10.5 101570 75
2002-05-03 10:30 51°27.982 3°9 5.7 296 10.5 101580 75
2002-05-03 10:31 51°27.979 3°9.013 6.2 291 10.5 101580 75
2002-05-03 10:32 51°27.982 3°9.025 5.6 273 10.4 101580 75
2002-05-03 10:33 51°27.99 3°9.031 5.1 250 10.5 101580 75
2002-05-03 10:34 51°28.002 3°9.024 5.9 230 10.6 101580 76
2002-05-03 10:35 51°28.018 3°9.007 6.2 230 10.6 101580 74
2002-05-03 10:36 51°28.037 3°8.986 5.9 236 10.6 101580 74
2002-05-03 10:37 51°28.052 3°8.977 6.7 267 10.5 101580 74
2002-05-03 10:38 51°28.057 3°8.988 5.8 298 10.5 101580 73
2002-05-03 10:39 51°28.05 3°9.005 0.6 331 10.5 101580 74
2002-05-03 10:40 51°28.036 3°9.023 3 314 10.4 101580 75
2002-05-03 10:41 51°28.023 3°9.034 3.8 309 10.3 101580 75
2002-05-03 10:42 51°28.012 3°9.04 4.8 306 10.4 101580 77
2002-05-03 10:43 51°28.001 3°9.043 5.9 299 10.3 101590 75
2002-05-03 10:44 51°27.994 3°9.047 6 293 10.4 101580 75
2002-05-03 10:45 51°27.991 3°9.052 6.4 278 10.5 101580 76
2002-05-03 10:46 51°27.991 3°9.065 6.7 300 10.5 101580 75
2002-05-03 10:47 51°27.983 3°9.089 1 329 10.4 101580 75
2002-05-03 10:48 51°27.96 3°9.116 3.6 6 10.3 101590 75
2002-05-03 10:49 51°27.923 3°9.124 4.8 30 10.3 101590 76
2002-05-03 10:50 51°27.881 3°9.104 4.8 63 10.2 101590 77
2002-05-03 10:51 51°27.846 3°9.065 3.6 102 10.2 101590 75
2002-05-03 10:52 51°27.823 3°8.929 7 192 10.2 101590 77
2002-05-03 10:53 51°27.88 3°8.623 10.2 207 10.1 101580 76
2002-05-03 10:54 51°27.95 3°8.278 9.4 204 10.1 101580 77
2002-05-03 10:55 51°28.022 3°7.926 10.9 206 10 101570 77
2002-05-03 10:56 51°28.097 3°7.574 10.6 204 9.9 101580 77
2002-05-03 10:57 51°28.171 3°7.218 10.7 208 10 101580 78
2002-05-03 10:58 51°28.248 3°6.865 11.4 202 9.9 101580 78
2002-05-03 10:59 51°28.31 3°6.491 12.1 202 9.9 101570 78
2002-05-03 11:00 51°28.351 3°6.117 10.5 201 9.8 101570 78
2002-05-03 11:01 51°28.401 3°5.741 11 206 9.8 101580 79
2002-05-03 11:02 51°28.449 3°5.362 9.7 198 9.8 101580 79
2002-05-03 11:03 51°28.477 3°4.976 9.4 204 9.8 101580 79
2002-05-03 11:04 51°28.504 3°4.59 10.1 200 9.8 101580 79
2002-05-03 11:05 51°28.532 3°4.204 8.8 190 9.7 101580 78
2002-05-03 11:06 51°28.558 3°3.826 7.8 197 9.7 101580 78
2002-05-03 11:07 51°28.604 3°3.634 4.4 210 9.8 101590 80
2002-05-03 11:08 51°28.659 3°3.618 6.8 278 9.8 101600 79
2002-05-03 11:09 51°28.677 3°3.702 6.4 274 9.9 101600 78
2002-05-03 11:10 51°28.679 3°3.726 5.6 285 10 101610 77
2002-05-03 11:11 51°28.674 3°3.739 5.7 288 10.1 101610 77
2002-05-03 11:12 51°28.667 3°3.738 5.4 272 10.2 101610 77
2002-05-03 11:13 51°28.661 3°3.732 5.2 262 10.3 101610 77
2002-05-03 11:14 51°28.655 3°3.72 5.6 270 10.3 101610 77
2002-05-03 11:15 51°28.649 3°3.705 5 260 10.3 101610 76
2002-05-03 11:16 51°28.643 3°3.687 5 251 10.4 101610 76
2002-05-03 11:17 51°28.641 3°3.671 4.8 250 10.4 101610 76
2002-05-03 11:18 51°28.643 3°3.657 5.6 241 10.5 101610 76
2002-05-03 11:19 51°28.651 3°3.642 5.6 233 10.6 101610 76
2002-05-03 11:20 51°28.66 3°3.633 5.5 274 10.6 101610 75
2002-05-03 11:21 51°28.662 3°3.688 6.1 289 10.5 101620 75
2002-05-03 11:22 51°28.658 3°3.739 6.6 302 10.5 101610 76
2002-05-03 11:23 51°28.645 3°3.742 4.5 303 10.5 101620 75
2002-05-03 11:24 51°28.63 3°3.739 6.1 296 10.4 101620 74
2002-05-03 11:25 51°28.619 3°3.744 5.8 288 10.4 101630 75
2002-05-03 11:26 51°28.613 3°3.741 5.3 272 10.4 101630 74
2002-05-03 11:27 51°28.612 3°3.732 5.1 260 10.5 101620 74
2002-05-03 11:28 51°28.614 3°3.718 6.2 254 10.6 101630 76
2002-05-03 11:29 51°28.618 3°3.701 5.7 256 10.6 101620 75
2002-05-03 11:30 51°28.621 3°3.69 6.6 285 10.6 101630 75
2002-05-03 11:31 51°28.618 3°3.687 6 280 10.6 101630 74
2002-05-03 11:32 51°28.617 3°3.68 5.2 266 10.5 101640 75
2002-05-03 11:33 51°28.62 3°3.663 5.2 242 10.5 101630 75
2002-05-03 11:34 51°28.624 3°3.635 6.1 230 10.6 101630 76
2002-05-03 11:35 51°28.651 3°3.625 7.9 267 10.6 101630 75
2002-05-03 11:36 51°28.664 3°3.662 6.4 294 10.5 101630 75
2002-05-03 11:37 51°28.661 3°3.693 6.5 295 10.4 101640 74
2002-05-03 11:38 51°28.654 3°3.71 6.2 298 10.4 101640 75
2002-05-03 11:39 51°28.641 3°3.716 2.3 297 10.4 101630 75
2002-05-03 11:40 51°28.622 3°3.713 0.7 331 10.4 101640 75
2002-05-03 11:41 51°28.598 3°3.706 5.2 6 10.3 101640 76
2002-05-03 11:42 51°28.571 3°3.692 4.7 13 10.3 101630 75
2002-05-03 11:43 51°28.541 3°3.671 4.8 27 10.2 101640 75
2002-05-03 11:44 51°28.509 3°3.641 4 47 10.1 101640 75
2002-05-03 11:45 51°28.478 3°3.601 4.2 71 10.2 101640 75
2002-05-03 11:46 51°28.45 3°3.55 4.3 103 10.2 101640 75
2002-05-03 11:47 51°28.374 3°3.453 2.4 165 10.2 101640 76
2002-05-03 11:48 51°28.181 3°3.263 3.1 195 10.1 101640 76
2002-05-03 11:49 51°27.974 3°3.05 3.1 187 10.1 101640 76
2002-05-03 11:50 51°27.783 3°2.793 4.7 174 10 101640 77
2002-05-03 11:51 51°27.605 3°2.51 4.7 193 10 101630 78
2002-05-03 11:52 51°27.422 3°2.229 4.5 178 9.9 101630 78
2002-05-03 11:53 51°27.24 3°1.95 4.5 185 9.9 101640 78
2002-05-03 11:54 51°27.057 3°1.672 4.5 184 9.8 101640 78
2002-05-03 11:55 51°26.872 3°1.396 4.3 181 9.8 101640 77
2002-05-03 11:56 51°26.689 3°1.117 4.8 190 9.9 101640 79
2002-05-03 11:57 51°26.507 3°0.838 5 181 9.9 101630 78
2002-05-03 11:58 51°26.33 3°0.557 4.6 186 9.8 101630 78
2002-05-03 11:59 51°26.148 3°0.288 4 187 9.8 101630 78
2002-05-03 12:00 51°25.953 3°0.045 3.5 181 9.8 101640 77
2002-05-03 12:01 51°25.737 2°59.853 2.7 196 9.8 101640 78
2002-05-03 12:02 51°25.51 2°59.703 2.4 192 9.9 101640 78
2002-05-03 12:03 51°25.279 2°59.568 2.8 197 9.9 101640 78
2002-05-03 12:04 51°25.043 2°59.484 1.6 220 9.9 101650 78
2002-05-03 12:05 51°24.806 2°59.493 2.2 248 10.1 101640 79
2002-05-03 12:06 51°24.568 2°59.476 2.5 213 10.3 101640 79
2002-05-03 12:07 51°24.328 2°59.467 2.3 315 10.4 101640 78
2002-05-03 12:08 51°24.09 2°59.461 2.6 247 10.5 101640 78
2002-05-03 12:09 51°23.853 2°59.462 1.9 270 10.6 101640 78
2002-05-03 12:10 51°23.624 2°59.516 3.8 289 10.7 101640 76
2002-05-03 12:11 51°23.434 2°59.559 0.6 339 10.6 101640 75
2002-05-03 12:12 51°23.325 2°59.604 2.2 318 10.4 101640 73
2002-05-03 12:13 51°23.279 2°59.692 4.5 306 10.4 101630 75
2002-05-03 12:14 51°23.241 2°59.784 8.2 297 10.4 101630 75
2002-05-03 12:15 51°23.229 2°59.889 8.7 290 10.4 101630 75
2002-05-03 12:16 51°23.229 3°0.023 6.7 286 10.3 101630 74
2002-05-03 12:17 51°23.23 3°0.041 6.1 278 10.4 101630 74
2002-05-03 12:18 51°23.23 3°0.036 6 265 10.5 101630 74
2002-05-03 12:19 51°23.227 3°0.027 7.5 276 10.5 101630 75
2002-05-03 12:20 51°23.226 3°0.016 6.7 273 10.6 101630 75
2002-05-03 12:21 51°23.224 3°0.003 7.4 273 10.6 101640 74
2002-05-03 12:22 51°23.222 2°59.99 6.8 277 10.6 101640 74
2002-05-03 12:23 51°23.22 2°59.979 7.2 276 10.6 101640 74
2002-05-03 12:24 51°23.225 2°59.977 7.9 277 10.6 101640 73
2002-05-03 12:25 51°23.236 2°59.979 8.1 264 10.5 101640 73
2002-05-03 12:26 51°23.248 2°59.982 7.5 284 10.4 101640 73
2002-05-03 12:27 51°23.251 2°59.986 7.1 274 10.4 101640 74
2002-05-03 12:28 51°23.255 2°59.982 8.4 271 10.4 101640 75
2002-05-03 12:29 51°23.257 2°59.977 6.6 280 10.3 101640 74
2002-05-03 12:30 51°23.259 2°59.97 7.3 272 10.4 101640 75
2002-05-03 12:31 51°23.258 2°59.964 7.1 291 10.4 101650 75
2002-05-03 12:32 51°23.255 2°59.965 8.3 284 10.4 101650 75
2002-05-03 12:33 51°23.253 2°59.962 8.2 280 10.4 101650 75
2002-05-03 12:34 51°23.251 2°59.959 7.5 291 10.4 101650 74
2002-05-03 12:35 51°23.247 2°59.96 7.1 291 10.3 101660 74
2002-05-03 12:36 51°23.241 2°59.964 8 300 10.3 101660 74
2002-05-03 12:37 51°23.236 2°59.968 7.4 296 10.3 101660 74
2002-05-03 12:38 51°23.233 2°59.967 7.6 280 10.4 101660 75
2002-05-03 12:39 51°23.233 2°59.966 7.6 283 10.4 101660 72
2002-05-03 12:40 51°23.233 2°59.966 8.1 278 10.5 101660 73
2002-05-03 12:41 51°23.231 2°59.963 8.2 284 10.5 101650 72
2002-05-03 12:42 51°23.23 2°59.962 7.8 288 10.5 101660 74
2002-05-03 12:43 51°23.232 2°59.962 7.9 269 10.5 101660 73
2002-05-03 12:44 51°23.231 2°59.956 7.5 272 10.5 101670 72
2002-05-03 12:45 51°23.233 2°59.952 6.8 273 10.5 101660 71
2002-05-03 12:46 51°23.235 2°59.947 8 278 10.5 101670 71
2002-05-03 12:47 51°23.238 2°59.942 8.3 261 10.6 101660 72
2002-05-03 12:48 51°23.266 2°59.919 7.4 210 10.6 101670 72
2002-05-03 12:49 51°23.261 2°59.778 6.7 153 10.3 101660 72
2002-05-03 12:50 51°23.159 2°59.501 6.7 175 10.1 101670 72
2002-05-03 12:51 51°23.038 2°59.158 5.8 176 10 101670 73
2002-05-03 12:52 51°22.921 2°58.806 6.6 185 9.9 101670 74
2002-05-03 12:53 51°22.803 2°58.453 5.6 180 9.8 101670 73
2002-05-03 12:54 51°22.682 2°58.101 6 177 9.8 101670 74
2002-05-03 12:55 51°22.541 2°57.77 6.5 174 9.8 101670 76
2002-05-03 12:56 51°22.392 2°57.445 5.7 177 9.8 101680 75
2002-05-03 12:57 51°22.242 2°57.124 6.6 176 9.8 101680 74
2002-05-03 12:58 51°22.093 2°56.805 6.3 174 9.8 101680 74
2002-05-03 12:59 51°21.948 2°56.481 6.1 166 9.8 101680 75
2002-05-03 13:00 51°21.819 2°56.141 4.3 182 9.8 101680 74
2002-05-03 13:01 51°21.696 2°55.791 7.1 178 9.8 101680 75
2002-05-03 13:02 51°21.6 2°55.414 6.6 169 9.8 101680 74
2002-05-03 13:03 51°21.502 2°55.051 5.5 187 9.8 101690 75
2002-05-03 13:04 51°21.403 2°54.681 7.9 176 9.9 101690 76
2002-05-03 13:05 51°21.303 2°54.312 6.5 182 9.9 101690 76
2002-05-03 13:06 51°21.205 2°53.942 6.7 183 9.8 101680 75
2002-05-03 13:07 51°21.107 2°53.573 5.7 182 9.8 101690 74
2002-05-03 13:08 51°21.009 2°53.203 5.6 180 9.9 101700 74
2002-05-03 13:09 51°20.911 2°52.833 5.8 179 9.9 101700 73
2002-05-03 13:10 51°20.813 2°52.464 6.2 180 9.9 101690 75
2002-05-03 13:11 51°20.714 2°52.096 6.6 185 9.9 101700 75
2002-05-03 13:12 51°20.617 2°51.727 6.9 180 9.9 101700 75
2002-05-03 13:13 51°20.517 2°51.36 5.9 182 9.9 101700 74
2002-05-03 13:14 51°20.419 2°50.994 6.1 183 9.9 101710 75
2002-05-03 13:15 51°20.319 2°50.632 5.9 179 9.9 101710 75
2002-05-03 13:16 51°20.229 2°50.264 6 179 9.9 101700 74
2002-05-03 13:17 51°20.138 2°49.894 6.6 184 9.9 101700 74
2002-05-03 13:18 51°20.047 2°49.525 6.6 181 9.8 101710 73
2002-05-03 13:19 51°19.948 2°49.16 4.7 187 9.8 101700 74
2002-05-03 13:20 51°19.83 2°48.809 6.4 174 9.8 101700 75
2002-05-03 13:21 51°19.781 2°48.426 10 189 9.8 101700 74
2002-05-03 13:22 51°19.774 2°48.064 8 190 9.8 101690 75
2002-05-03 13:23 51°19.836 2°47.903 8.4 191 9.8 101700 75
2002-05-03 13:24 51°19.889 2°47.76 8.2 212 9.9 101690 76
2002-05-03 13:25 51°19.913 2°47.697 4.8 221 9.9 101710 74
2002-05-03 13:26 51°19.922 2°47.677 8.4 279 10.1 101710 74
2002-05-03 13:27 51°19.926 2°47.752 8.5 286 10.1 101700 73
2002-05-03 13:28 51°19.916 2°47.823 5.7 299 10.2 101710 75
2002-05-03 13:29 51°19.894 2°47.833 5.9 298 10.1 101720 75
2002-05-03 13:30 51°19.876 2°47.848 5.9 302 10.1 101710 74
2002-05-03 13:31 51°19.861 2°47.851 5.6 293 10.2 101720 75
2002-05-03 13:32 51°19.845 2°47.844 7.2 293 10.2 101710 75
2002-05-03 13:33 51°19.829 2°47.831 6.8 305 10.2 101710 74
2002-05-03 13:34 51°19.813 2°47.814 5.5 290 10.3 101710 73
2002-05-03 13:35 51°19.797 2°47.796 5.8 296 10.4 101710 73
2002-05-03 13:36 51°19.78 2°47.801 7.3 297 10.4 101710 73
2002-05-03 13:37 51°19.776 2°47.815 7 270 10.4 101700 73
2002-05-03 13:38 51°19.786 2°47.81 6.3 251 10.5 101700 73
2002-05-03 13:39 51°19.809 2°47.793 8.5 235 10.5 101700 72
2002-05-03 13:40 51°19.852 2°47.77 7.9 236 10.4 101700 72
2002-05-03 13:41 51°19.884 2°47.742 7.1 212 10.2 101700 72
2002-05-03 13:42 51°19.902 2°47.689 6.4 204 10.2 101690 73
2002-05-03 13:43 51°19.914 2°47.64 7.4 223 10.2 101690 74
2002-05-03 13:44 51°19.92 2°47.593 7.2 201 10.2 101690 74
2002-05-03 13:45 51°19.945 2°47.544 8.2 254 10.1 101690 73
2002-05-03 13:46 51°19.963 2°47.61 7.1 292 10.1 101690 73
2002-05-03 13:47 51°19.92 2°47.733 2.3 318 10.1 101690 74
2002-05-03 13:48 51°19.884 2°47.747 5.5 48 10 101710 74
2002-05-03 13:49 51°19.871 2°47.72 6 61 10.1 101690 74
2002-05-03 13:50 51°19.85 2°47.694 6.1 83 10.1 101690 73
2002-05-03 13:51 51°19.824 2°47.653 6.2 124 10 101690 73
2002-05-03 13:52 51°19.809 2°47.568 7.1 190 10 101680 73
2002-05-03 13:53 51°19.827 2°47.489 6.5 195 10 101680 73
2002-05-03 13:54 51°19.829 2°47.434 5.8 197 9.9 101690 73
2002-05-03 13:55 51°19.825 2°47.386 5 189 9.9 101690 74
2002-05-03 13:56 51°19.817 2°47.34 6.5 194 9.9 101680 74
2002-05-03 13:57 51°19.852 2°47.295 10.9 260 9.9 101680 75
2002-05-03 13:58 51°19.873 2°47.458 7.7 293 9.9 101690 75
2002-05-03 13:59 51°19.869 2°47.669 8.5 284 9.9 101690 75
2002-05-03 14:00 51°19.893 2°47.811 7.6 282 10.1 101690 74
2002-05-03 14:01 51°19.904 2°47.828 6.8 260 10.2 101690 73
2002-05-03 14:02 51°19.911 2°47.826 6.6 268 10.3 101690 72
2002-05-03 14:03 51°19.916 2°47.824 6.8 277 10.3 101690 73
2002-05-03 14:04 51°19.922 2°47.825 7 276 10.4 101680 73
2002-05-03 14:05 51°19.926 2°47.818 6.5 264 10.4 101680 72
2002-05-03 14:06 51°19.931 2°47.801 7.6 241 10.5 101680 74
2002-05-03 14:07 51°19.932 2°47.772 6.8 210 10.5 101680 73
2002-05-03 14:08 51°19.927 2°47.729 5.9 190 10.3 101680 73
2002-05-03 14:09 51°19.921 2°47.682 7.7 201 10.1 101680 74
2002-05-03 14:10 51°19.917 2°47.638 7 213 10 101680 75
2002-05-03 14:11 51°19.915 2°47.598 6.2 226 10.1 101680 76
2002-05-03 14:12 51°19.914 2°47.567 7.1 242 10.3 101680 76
2002-05-03 14:13 51°19.911 2°47.545 6.7 267 10.3 101680 75
2002-05-03 14:14 51°19.907 2°47.54 7.2 302 10.2 101680 74
2002-05-03 14:15 51°19.9 2°47.569 6.5 304 10.3 101680 76
2002-05-03 14:16 51°19.886 2°47.599 2.7 299 10.2 101690 74
2002-05-03 14:17 51°19.85 2°47.629 3.3 19 10.1 101690 74
2002-05-03 14:18 51°19.764 2°47.525 5.7 158 10.1 101700 75
2002-05-03 14:19 51°19.653 2°47.209 6.4 172 10.1 101690 75
2002-05-03 14:20 51°19.544 2°46.866 6.9 175 10 101690 76
2002-05-03 14:21 51°19.444 2°46.504 7 181 9.8 101690 75
2002-05-03 14:22 51°19.347 2°46.146 5.8 180 9.8 101690 75
2002-05-03 14:23 51°19.254 2°45.795 8.1 172 9.9 101680 76
2002-05-03 14:24 51°19.165 2°45.439 6.7 182 9.8 101690 76
2002-05-03 14:25 51°19.084 2°45.085 6.3 184 9.8 101690 75
2002-05-03 14:26 51°19.004 2°44.733 6.5 183 9.8 101690 75
2002-05-03 14:27 51°18.939 2°44.385 7.3 175 9.7 101700 75
2002-05-03 14:28 51°18.878 2°44.052 7.9 173 9.7 101690 76
2002-05-03 14:29 51°18.916 2°43.91 8.7 220 9.7 101690 76
2002-05-03 14:30 51°18.945 2°43.884 6.5 235 9.8 101690 75
2002-05-03 14:31 51°18.948 2°43.882 6.2 281 9.9 101690 74
2002-05-03 14:32 51°18.942 2°43.89 7 294 10 101700 75
2002-05-03 14:33 51°18.936 2°43.904 7.4 287 10 101700 74
2002-05-03 14:34 51°18.933 2°43.919 7.8 274 10.1 101690 73
2002-05-03 14:35 51°18.931 2°43.929 7 255 10.1 101680 72
2002-05-03 14:36 51°18.932 2°43.934 6.7 234 10.1 101690 72
2002-05-03 14:37 51°18.934 2°43.931 6.8 220 10.2 101690 74
2002-05-03 14:38 51°18.936 2°43.918 7 196 10.1 101680 72
2002-05-03 14:39 51°18.938 2°43.894 5.8 180 9.9 101680 72
2002-05-03 14:40 51°18.941 2°43.862 7.5 189 9.8 101680 73
2002-05-03 14:41 51°18.945 2°43.837 7.4 202 9.8 101680 75
2002-05-03 14:42 51°18.954 2°43.819 7.1 218 9.7 101690 76
2002-05-03 14:43 51°18.952 2°43.808 6.7 210 9.8 101690 75
2002-05-03 14:44 51°18.939 2°43.798 5.6 204 9.8 101690 75
2002-05-03 14:45 51°18.924 2°43.79 7 200 9.7 101680 75
2002-05-03 14:46 51°18.928 2°43.773 6.7 219 9.7 101680 75
2002-05-03 14:47 51°18.942 2°43.764 8 229 9.8 101680 76
2002-05-03 14:48 51°18.946 2°43.764 7.7 240 9.8 101680 75
2002-05-03 14:49 51°18.944 2°43.765 7.7 248 9.9 101680 74
2002-05-03 14:50 51°18.945 2°43.774 7.2 235 9.9 101680 74
2002-05-03 14:51 51°18.951 2°43.778 7.9 211 10 101680 74
2002-05-03 14:52 51°18.954 2°43.772 7 201 9.9 101670 73
2002-05-03 14:53 51°18.957 2°43.759 7.4 192 9.7 101670 73
2002-05-03 14:54 51°18.956 2°43.741 6.8 187 9.6 101670 74
2002-05-03 14:55 51°18.957 2°43.724 5.7 189 9.5 101670 73
2002-05-03 14:56 51°18.959 2°43.707 6.5 194 9.5 101670 75
2002-05-03 14:57 51°18.962 2°43.696 6.9 209 9.6 101670 76
2002-05-03 14:58 51°18.968 2°43.688 7.9 224 9.5 101670 75
2002-05-03 14:59 51°18.979 2°43.695 8.1 253 9.6 101670 75
2002-05-03 15:00 51°18.983 2°43.718 8.2 283 9.7 101670 74
2002-05-03 15:01 51°18.974 2°43.748 3.4 342 9.7 101670 74
2002-05-03 15:02 51°18.954 2°43.779 2.2 347 9.7 101680 74
2002-05-03 15:03 51°18.926 2°43.8 5.5 13 9.7 101680 74
2002-05-03 15:04 51°18.893 2°43.804 6.7 39 9.7 101680 76
2002-05-03 15:05 51°18.824 2°43.782 2.9 340 9.6 101680 75
2002-05-03 15:06 51°18.633 2°43.829 5.4 298 9.6 101680 74
2002-05-03 15:07 51°18.42 2°43.932 5.3 294 9.7 101680 74
2002-05-03 15:08 51°18.201 2°44.034 3.7 306 9.8 101680 74
2002-05-03 15:09 51°17.981 2°44.143 5.5 295 9.9 101670 74
2002-05-03 15:10 51°17.763 2°44.259 5.6 292 10 101670 74
2002-05-03 15:11 51°17.546 2°44.37 4.5 293 10.1 101670 73
2002-05-03 15:12 51°17.323 2°44.484 5.3 295 10.1 101660 73
2002-05-03 15:13 51°17.107 2°44.595 5.7 301 10.2 101670 73
2002-05-03 15:14 51°16.89 2°44.717 5.9 299 10.2 101660 73
2002-05-03 15:15 51°16.687 2°44.904 7.2 304 10.2 101660 73
2002-05-03 15:16 51°16.513 2°45.135 8.7 293 10.2 101660 73
2002-05-03 15:17 51°16.384 2°45.444 11.6 286 10.1 101650 73
2002-05-03 15:18 51°16.281 2°45.768 10.1 287 10.1 101650 73
2002-05-03 15:19 51°16.209 2°46.125 12.2 277 10 101640 73
2002-05-03 15:20 51°16.124 2°46.473 11.5 277 10 101630 74
2002-05-03 15:21 51°16.053 2°46.824 11.2 282 9.9 101640 74
2002-05-03 15:22 51°15.982 2°47.186 10.9 282 9.9 101640 73
2002-05-03 15:23 51°15.911 2°47.549 12.5 278 9.9 101630 74
2002-05-03 15:24 51°15.838 2°47.909 12.4 272 9.9 101630 74
2002-05-03 15:25 51°15.775 2°48.271 11.1 273 9.9 101630 73
2002-05-03 15:26 51°15.708 2°48.635 12.7 279 9.9 101630 73
2002-05-03 15:27 51°15.643 2°48.99 10.7 279 9.8 101630 73
2002-05-03 15:28 51°15.577 2°49.364 10.9 271 9.9 101630 73
2002-05-03 15:29 51°15.522 2°49.719 11.2 277 9.9 101640 74
2002-05-03 15:30 51°15.466 2°50.093 12.2 278 9.9 101630 74
2002-05-03 15:31 51°15.427 2°50.465 12.7 264 9.9 101640 73
2002-05-03 15:32 51°15.421 2°50.846 12.5 277 9.9 101630 72
2002-05-03 15:33 51°15.404 2°51.232 13.8 270 9.9 101620 73
2002-05-03 15:34 51°15.338 2°51.585 9.8 283 9.8 101630 72
2002-05-03 15:35 51°15.248 2°51.93 10.6 275 9.9 101640 73
2002-05-03 15:36 51°15.147 2°52.267 12.1 283 9.9 101630 74
2002-05-03 15:37 51°15.046 2°52.606 11 282 9.9 101640 74
2002-05-03 15:38 51°14.946 2°52.95 11.9 284 9.9 101640 74
2002-05-03 15:39 51°14.847 2°53.274 9.2 292 10 101640 73
2002-05-03 15:40 51°14.74 2°53.54 8.9 294 10 101650 74
2002-05-03 15:41 51°14.674 2°53.744 6.6 298 10 101650 74
2002-05-03 15:42 51°14.627 2°53.872 5.3 302 10 101660 72
2002-05-03 15:43 51°14.589 2°53.979 2.6 322 10 101660 72
2002-05-03 15:44 51°14.561 2°54.085 8.4 294 10 101660 74
2002-05-03 15:45 51°14.526 2°54.228 9 293 10.1 101660 74
2002-05-03 15:46 51°14.475 2°54.526 11 279 10 101640 74
2002-05-03 15:47 51°14.419 2°54.84 10.4 286 10 101650 73
2002-05-03 15:48 51°14.332 2°55.108 3.9 318 10 101650 73
2002-05-03 15:49 51°14.263 2°55.264 1.3 324 10 101650 74
2002-05-03 15:50 51°14.195 2°55.362 1.5 355 10 101650 74
2002-05-03 15:51 51°14.121 2°55.43 3.3 330 9.9 101660 73
2002-05-03 15:52 51°14.046 2°55.488 3.8 339 9.8 101650 73
2002-05-03 15:53 51°13.966 2°55.538 2.3 330 9.8 101650 73
2002-05-03 15:54 51°13.888 2°55.589 3.9 16 9.7 101650 73
2002-05-03 15:55 51°13.822 2°55.637 1.5 345 9.7 101650 74
2002-05-03 15:56 51°13.777 2°55.689 1.5 349 9.9 101650 75
2002-05-03 15:57 51°13.742 2°55.733 5.4 22 9.9 101650 74
2002-05-03 15:58 51°13.716 2°55.787 4.4 336 9.9 101650 73
2002-05-03 15:59 51°13.703 2°55.843 0.2 226 9.9 101650 72
2002-05-03 16:00 51°13.692 2°55.889 3.2 303 10.1 101660 73
2002-05-03 16:01 51°13.69 2°55.899 2.5 305 10.2 101650 72
2002-05-03 16:02 51°13.687 2°55.905 4.4 347 10.3 101670 72